[[{"header":{"parameterUnit":"m.s-1","parameterCategory":1,"la1":30.2991,"la2":30.254,"lo1":-89.0895,"lo2":-89.0444,"dy":0.0017,"dx":0.0017,"nx":28,"ny":28,"refTime":"2024-06-05T09:00:00:Z","depth":0,"parameterNumber":2,"parameterNumberName":"U-component_of_WINDS"},"data":[0,0,0,0,0,0,0,0,0,0,0,0,0,0,0,0,0,0,0,0,0,0,0,0,0,0,0,0,0,0,0,0,0,0,0,0,0,0,0,0,0,0,0,0,0,0,0,0,0,0,0,0,0,0,0,0,0,0,-0.8397,-0.8397,0,-0.8411,-0.8411,-0.8411,-0.8435,-0.8435,-0.8436,-0.8436,-0.8449,-0.8449,-0.8449,0,0,0,0,0,0,0,0,0,0,0,0,0,-0.8391,-0.8391,-0.8397,-0.8397,-0.8397,-0.8411,-0.8411,-0.8411,-0.8435,-0.8435,-0.8436,-0.8436,-0.8449,-0.8449,-0.8449,0,0,0,0,0,0,0,0,0,0,0,0,0,-0.8398,-0.8391,-0.8397,-0.8411,-0.8412,-0.841,-0.8411,-0.8411,-0.8435,-0.8435,-0.8436,-0.8437,-0.8449,-0.8449,-0.8449,-0.8435,0,0,-0.8449,-0.8449,0,0,0,0,0,0,0,0,-0.8398,-0.8398,-0.8409,-0.841,-0.8411,-0.8422,-0.8414,-0.8419,-0.8434,-0.8426,-0.8436,-0.8437,-0.8439,-0.844,-0.8441,-0.8435,-0.8436,-0.8449,-0.8449,-0.8448,-0.8448,0,0,0,0,0,0,0,-0.8397,-0.8398,-0.8402,-0.8409,-0.841,-0.8416,-0.8418,-0.8415,-0.8429,-0.8427,-0.8429,-0.843,-0.844,-0.8441,-0.8442,-0.8436,-0.8449,-0.8448,-0.8448,-0.8448,-0.8419,-0.8419,0,0,0,0,0,0,-0.8395,-0.8397,-0.8402,-0.8403,-0.8406,-0.8416,-0.8418,-0.8418,-0.8429,-0.8431,-0.8429,-0.8431,-0.8441,-0.8442,-0.8442,-0.8426,-0.8448,-0.8448,-0.8448,-0.842,-0.8419,-0.8418,0,0,0,0,0,0,-0.8395,-0.8395,-0.8401,-0.8401,-0.8402,-0.8415,-0.8415,-0.8418,-0.8418,-0.8431,-0.8433,-0.8428,-0.8442,-0.8442,-0.8436,-0.8427,-0.8448,-0.8448,-0.8421,-0.842,-0.8419,-0.8393,0,0,0,0,0,0,-0.8394,-0.8395,-0.8389,-0.84,-0.8402,-0.8395,-0.8414,-0.8417,-0.8418,-0.8421,-0.843,-0.8432,-0.8442,-0.8436,-0.8436,-0.8427,-0.8448,-0.8422,-0.842,-0.8419,-0.8395,-0.8392,-0.8389,0,0,0,0,0,-0.8394,-0.8381,-0.8389,-0.8389,-0.8395,-0.8395,-0.8395,-0.8408,-0.8417,-0.8412,-0.842,-0.8432,-0.8428,-0.8436,-0.8436,-0.8426,-0.8422,-0.8421,-0.8419,-0.8397,-0.8392,-0.8389,0,0,0,0,0,0,-0.8368,-0.8383,-0.8392,-0.8382,-0.8387,-0.8399,-0.8392,-0.8403,-0.8405,-0.8407,-0.8422,-0.8424,-0.8416,-0.8421,-0.8429,-0.8413,-0.8427,-0.8426,-0.841,-0.8406,-0.8403,-0.8401,-0.8448,0,0,0,0,0,-0.8362,-0.836,-0.8373,-0.8363,-0.8365,-0.8378,-0.8379,-0.8388,-0.8393,-0.8395,-0.8403,-0.8408,-0.8408,-0.8407,-0.8408,-0.8397,-0.8399,-0.839,-0.8387,-0.8384,-0.8382,-0.8377,-0.8373,-0.8413,-0.8413,-0.8413,0,0,-0.8347,-0.8355,-0.8353,-0.8358,-0.8363,-0.8361,-0.838,-0.8377,-0.8375,-0.8395,-0.839,-0.8396,-0.8402,-0.8393,-0.839,-0.8397,-0.8372,-0.8382,-0.838,-0.8379,-0.8375,-0.8371,-0.8367,-0.8412,-0.8412,-0.8413,0,0,-0.832,-0.8327,-0.8319,-0.8324,-0.8331,-0.834,-0.8339,-0.8349,-0.8354,-0.8349,-0.8364,-0.8363,-0.8362,-0.8366,-0.8368,-0.8344,-0.8355,-0.8344,-0.8327,-0.8321,-0.8318,-0.8315,-0.8306,-0.8303,-0.8343,-0.8343,-0.8343,0,-0.8302,-0.8299,-0.8314,-0.831,-0.8312,-0.833,-0.8323,-0.8327,-0.8334,-0.8335,-0.8343,-0.8344,-0.8349,-0.8342,-0.8336,-0.8337,-0.8336,-0.8343,-0.8317,-0.8315,-0.8312,-0.8304,-0.83,-0.8341,-0.8341,-0.8341,-0.8342,0,-0.8276,-0.8274,-0.8267,-0.8274,-0.8275,-0.827,-0.8283,-0.8283,-0.8293,-0.8301,-0.8296,-0.8304,-0.8306,-0.8306,-0.8315,-0.8299,-0.8304,-0.8315,-0.8329,-0.8307,-0.8299,-0.8296,-0.8339,-0.834,-0.834,-0.834,0,0,-0.8231,-0.8247,-0.8244,-0.8248,-0.8258,-0.8257,-0.8253,-0.8256,-0.8255,-0.826,-0.8256,-0.8256,-0.8267,-0.8269,-0.8279,-0.8274,-0.8254,-0.8286,-0.8286,-0.8279,-0.8238,-0.8229,-0.8225,-0.8262,-0.8262,-0.8261,-0.8237,0,-0.8206,-0.8199,-0.8212,-0.8202,-0.8201,-0.8219,-0.8215,-0.8221,-0.8229,-0.8229,-0.8238,-0.8237,-0.8251,-0.8253,-0.8249,-0.8257,-0.8246,-0.826,-0.8258,-0.8258,-0.8255,-0.8221,-0.8211,-0.8188,-0.8234,-0.8234,-0.8233,0,-0.8174,-0.8178,-0.8168,-0.8179,-0.8179,-0.8175,-0.818,-0.818,-0.8187,-0.8193,-0.8196,-0.8208,-0.8205,-0.822,-0.8215,-0.8224,-0.8225,-0.8229,-0.8228,-0.8228,-0.8243,-0.8218,-0.8181,-0.8177,-0.8229,-0.8229,-0.823,0,-0.8142,-0.8145,-0.8139,-0.8141,-0.8155,-0.8152,-0.8157,-0.8165,-0.8167,-0.8171,-0.8172,-0.8175,-0.8177,-0.8179,-0.8192,-0.8202,-0.8186,-0.8202,-0.819,-0.819,-0.8185,-0.8185,-0.8146,-0.8187,-0.8187,-0.8187,-0.8187,0,-0.8111,-0.8104,-0.8125,-0.8121,-0.8113,-0.813,-0.8122,-0.8129,-0.8137,-0.8135,-0.8151,-0.8149,-0.8167,-0.8167,-0.8177,-0.8171,-0.8172,-0.8177,-0.8179,-0.8175,-0.8174,-0.8174,-0.8176,-0.8186,-0.8187,-0.8187,-0.8187,0,-0.8073,-0.8087,-0.8082,-0.8095,-0.8099,-0.8092,-0.8104,-0.8101,-0.8111,-0.8108,-0.8109,-0.8123,-0.8124,-0.8138,-0.8141,-0.8148,-0.8138,-0.8145,-0.8136,-0.8137,-0.8125,-0.8125,-0.8084,-0.8079,-0.8124,-0.8124,-0.8123,0,-0.8052,-0.8047,-0.806,-0.806,-0.8065,-0.8065,-0.8067,-0.8083,-0.8084,-0.8093,-0.8089,-0.8091,-0.8094,-0.8094,-0.8105,-0.8108,-0.8114,-0.8099,-0.8114,-0.811,-0.8113,-0.8112,-0.8112,-0.8095,-0.8095,-0.8094,-0.8094,0,-0.8013,-0.802,-0.8022,-0.8026,-0.8028,-0.8032,-0.8037,-0.8036,-0.8054,-0.8054,-0.8055,-0.8058,-0.8062,-0.8064,-0.8069,-0.8075,-0.8087,-0.809,-0.8087,-0.8081,-0.8076,-0.8078,-0.8126,-0.809,-0.809,-0.8091,-0.8091,-0.8091,-0.7982,-0.7979,-0.7988,-0.7989,-0.7995,-0.7999,-0.7998,-0.8007,-0.8009,-0.8013,-0.8023,-0.8023,-0.8031,-0.804,-0.8045,-0.8045,-0.8052,-0.8049,-0.8047,-0.8046,-0.8043,-0.8077,-0.8046,-0.8046,-0.8046,-0.8046,-0.8046,0,-0.7943,-0.795,-0.7952,-0.7958,-0.796,-0.7973,-0.7979,-0.7979,-0.7979,-0.7986,-0.7988,-0.799,-0.7992,-0.8004,-0.8008,-0.8006,-0.8011,-0.8006,-0.8005,-0.8007,-0.8037,-0.8038,-0.8001,-0.8001,-0.8001,-0.8001,-0.8001,-0.8001,-0.7923,-0.7917,-0.7926,-0.7924,-0.7931,-0.7931,-0.7934,-0.7938,-0.7944,-0.7945,-0.7947,-0.7955,-0.7964,-0.7969,-0.7972,-0.7975,-0.7975,-0.7968,-0.7973,-0.8,-0.8004,-0.8009,-0.801,-0.7968,-0.7968,-0.7943,-0.7942,-0.7942]},{"header":{"parameterUnit":"m.s-1","parameterCategory":1,"la1":30.2991,"la2":30.254,"lo1":-89.0895,"lo2":-89.0444,"dy":0.0017,"dx":0.0017,"nx":28,"ny":28,"refTime":"2024-06-05T09:00:00:Z","depth":0,"parameterNumber":3,"parameterNumberName":"V-component_of_WINDS"},"data":[0,0,0,0,0,0,0,0,0,0,0,0,0,0,0,0,0,0,0,0,0,0,0,0,0,0,0,0,0,0,0,0,0,0,0,0,0,0,0,0,0,0,0,0,0,0,0,0,0,0,0,0,0,0,0,0,0,0,6.4914,6.4914,0,6.4908,6.4908,6.4908,6.4886,6.4885,6.4885,6.4884,6.4875,6.4876,6.4876,0,0,0,0,0,0,0,0,0,0,0,0,0,6.4904,6.4904,6.4914,6.4914,6.4914,6.4908,6.4908,6.4908,6.4886,6.4885,6.4885,6.4884,6.4875,6.4875,6.4876,0,0,0,0,0,0,0,0,0,0,0,0,0,6.4904,6.4904,6.4914,6.4902,6.4901,6.4908,6.4908,6.4908,6.4886,6.4885,6.4885,6.4884,6.4875,6.4875,6.4876,6.4893,0,0,6.4877,6.4877,0,0,0,0,0,0,0,0,6.4904,6.4905,6.4904,6.4903,6.4902,6.4897,6.4901,6.4903,6.4886,6.4892,6.4884,6.4883,6.4883,6.4883,6.4883,6.4893,6.4892,6.4877,6.4877,6.4877,6.4877,0,0,0,0,0,0,0,6.4904,6.4905,6.4912,6.4904,6.4903,6.4897,6.4896,6.4902,6.4892,6.4891,6.489,6.4889,6.4882,6.4883,6.4883,6.4892,6.4877,6.4877,6.4877,6.4878,6.4917,6.4918,0,0,0,0,0,0,6.4906,6.4905,6.4912,6.4912,6.4901,6.4898,6.4897,6.4899,6.4891,6.489,6.489,6.4888,6.4883,6.4882,6.4882,6.4903,6.4877,6.4878,6.4878,6.4917,6.4918,6.4919,0,0,0,0,0,0,6.4906,6.4907,6.4912,6.4908,6.4908,6.4899,6.4902,6.49,6.49,6.4891,6.4888,6.4893,6.4882,6.4882,6.4891,6.4903,6.4878,6.4878,6.4916,6.4917,6.4918,6.4944,0,0,0,0,0,0,6.4906,6.4907,6.4914,6.4908,6.4908,6.4922,6.4902,6.49,6.4901,6.4899,6.4893,6.4891,6.4881,6.4891,6.4892,6.4903,6.4878,6.4915,6.4916,6.4918,6.4943,6.4947,6.495,0,0,0,0,0,6.4906,6.4921,6.4914,6.4915,6.4917,6.4922,6.4922,6.4912,6.4902,6.4909,6.4903,6.4891,6.4901,6.4892,6.4893,6.4904,6.4914,6.4916,6.4918,6.4941,6.4946,6.495,0,0,0,0,0,0,6.4926,6.4919,6.4913,6.4926,6.4925,6.4919,6.4927,6.4918,6.4919,6.4916,6.4903,6.4902,6.4913,6.4909,6.4899,6.4921,6.4906,6.4908,6.4923,6.4928,6.4931,6.4932,6.4879,0,0,0,0,0,6.4933,6.4939,6.4932,6.4945,6.4945,6.4936,6.4938,6.4931,6.4929,6.4928,6.4922,6.492,6.4923,6.4925,6.4927,6.4942,6.4941,6.495,6.4954,6.4957,6.4959,6.4968,6.4972,6.4925,6.4925,6.4925,0,0,6.4945,6.4942,6.4947,6.4949,6.4947,6.4953,6.4936,6.4942,6.4947,6.4928,6.4938,6.4934,6.493,6.4943,6.4948,6.494,6.4972,6.4959,6.4962,6.4962,6.497,6.4975,6.4979,6.4926,6.4926,6.4926,0,0,6.4972,6.497,6.4981,6.498,6.4979,6.4973,6.4976,6.4971,6.4969,6.4978,6.4965,6.497,6.4974,6.4973,6.4973,6.5002,6.4991,6.5003,6.5022,6.5031,6.5034,6.5038,6.5048,6.5052,6.5005,6.5005,6.5005,0,6.4987,6.4997,6.4987,6.4996,6.4998,6.4983,6.4994,6.4994,6.4993,6.4994,6.4985,6.4993,6.4989,6.5002,6.5009,6.501,6.5012,6.5003,6.5035,6.5038,6.5041,6.5051,6.5055,6.5006,6.5006,6.5006,6.5006,0,6.5017,6.5024,6.5033,6.5034,6.5036,6.5046,6.5038,6.5042,6.5035,6.503,6.504,6.5036,6.5038,6.504,6.5033,6.5053,6.5048,6.5037,6.5021,6.5047,6.5056,6.506,6.5008,6.5008,6.5007,6.5007,0,0,6.5054,6.5052,6.5056,6.5057,6.5055,6.506,6.5069,6.5072,6.5076,6.5076,6.5084,6.509,6.508,6.5081,6.5073,6.5081,6.5105,6.5069,6.5069,6.5076,6.5127,6.5136,6.5141,6.5098,6.5098,6.5099,6.5128,0,6.508,6.5097,6.509,6.5107,6.5114,6.5101,6.511,6.5109,6.5106,6.5111,6.5106,6.5111,6.5098,6.5098,6.5105,6.51,6.5115,6.5098,6.5104,6.5105,6.5106,6.5145,6.5154,6.5181,6.5132,6.5132,6.5133,0,6.5112,6.5116,6.5134,6.5133,6.5136,6.5144,6.5147,6.5152,6.5151,6.5148,6.515,6.5141,6.515,6.5134,6.5147,6.5136,6.5138,6.5136,6.5137,6.5137,6.512,6.5147,6.519,6.5194,6.5138,6.5138,6.5137,0,6.5139,6.5148,6.5161,6.5162,6.5161,6.5167,6.5166,6.5166,6.5169,6.5171,6.5173,6.5176,6.5178,6.518,6.5172,6.5162,6.5186,6.517,6.5184,6.5184,6.5189,6.5189,6.5233,6.519,6.519,6.519,6.519,0,6.5169,6.5181,6.5173,6.5181,6.5195,6.5186,6.52,6.5198,6.5197,6.5205,6.5193,6.52,6.5189,6.5195,6.5188,6.52,6.5201,6.5199,6.5197,6.52,6.52,6.5201,6.5199,6.5191,6.5191,6.5191,6.5191,0,6.52,6.5196,6.5209,6.5208,6.5208,6.5218,6.5216,6.5224,6.522,6.5229,6.5231,6.5225,6.5231,6.5224,6.5229,6.5225,6.5241,6.5236,6.5242,6.524,6.5255,6.5254,6.5301,6.5308,6.526,6.5261,6.5261,0,6.522,6.5229,6.523,6.5234,6.5235,6.5243,6.5246,6.5239,6.5243,6.5245,6.5252,6.5257,6.5262,6.5272,6.5268,6.5272,6.5267,6.5284,6.5268,6.5271,6.5268,6.5268,6.5269,6.5287,6.5287,6.5288,6.5288,0,6.5255,6.5253,6.5259,6.5265,6.5271,6.5274,6.5277,6.5282,6.5274,6.5279,6.5287,6.529,6.5297,6.5303,6.5306,6.5305,6.5295,6.5294,6.5297,6.53,6.5304,6.5303,6.5251,6.5292,6.5292,6.5292,6.5291,6.5291,6.5281,6.529,6.5292,6.53,6.5302,6.5306,6.5313,6.5311,6.5317,6.5323,6.5318,6.5327,6.5328,6.5332,6.5332,6.5339,6.5331,6.5336,6.5337,6.5339,6.5342,6.5303,6.5339,6.5339,6.5339,6.5339,6.5339,0,6.5317,6.5318,6.5326,6.5331,6.5338,6.533,6.5333,6.5339,6.5348,6.535,6.5355,6.5364,6.537,6.5367,6.5372,6.5378,6.5374,6.538,6.5379,6.538,6.5347,6.5344,6.5383,6.5383,6.5383,6.5383,6.5383,6.5383,6.5336,6.535,6.5349,6.5364,6.5365,6.5375,6.5378,6.5381,6.5383,6.5394,6.54,6.5398,6.5399,6.5404,6.541,6.5409,6.5411,6.5419,6.5416,6.5386,6.5382,6.5377,6.5374,6.5419,6.5419,6.5448,6.5448,6.5448]}]]